Location: Ford County Road and Bridge Department
(37.7686°N, 99.9762°W)
Time: 11:30:09
(UTC+00:00)

Hubble Space Telescope - Visible Passes

Search period start: 07 April 2020 00:00
Search period end: 17 April 2020 00:00
Orbit: 536 x 540 km, 28.5° (Epoch: 07 April)

Date Brightness Start Highest point End Pass type
(mag) Time Alt. Az. Time Alt. Az. Time Alt. Az.
07 Apr 2.9 01:48:24 10° S 01:49:42 11° SSE 01:50:59 10° SE visible
08 Apr 2.9 01:36:55 10° SSW 01:38:55 13° SSE 01:40:55 10° SE visible
08 Apr 3.1 03:16:17 10° SW 03:17:07 14° SW 03:17:07 14° SW visible
09 Apr 2.7 03:05:30 10° SW 03:07:15 18° SSW 03:07:15 18° SSW visible
10 Apr 2.4 02:54:45 10° SW 02:57:19 21° SSW 02:57:19 21° SSW visible
11 Apr 2.3 02:44:02 10° SW 02:47:14 22° S 02:47:20 22° S visible
12 Apr 2.3 02:33:21 10° SW 02:36:29 21° S 02:37:19 20° SSE visible
13 Apr 2.5 02:22:43 10° SW 02:25:44 20° S 02:27:17 16° SSE visible
14 Apr 2.7 02:12:08 10° SW 02:14:59 18° S 02:17:14 12° SSE visible
15 Apr 2.8 02:01:37 10° SW 02:04:13 16° SSW 02:06:50 10° SSE visible
16 Apr 3.0 01:51:10 10° SW 01:53:27 14° SSW 01:55:44 10° SSE visible
